Meteo orario Gogolevka

Oggi, 15 Aprile, Giovedi

Tempo Temperatura Precipitazioni Vento Pressione Umidità
00:00 +7°C° 0 mm 2 m/s 742 mm Hg 76%
01:00 +7°C° 0 mm 2 m/s 742 mm Hg 74%
02:00 +6°C° 0 mm 2 m/s 742 mm Hg 73%
03:00 +6°C° 0 mm 2 m/s 742 mm Hg 73%
04:00 +4°C° 0 mm 1 m/s 742 mm Hg 80%
05:00 +5°C° 0 mm 1 m/s 742 mm Hg 79%
06:00 +5°C° 0 mm 1 m/s 742 mm Hg 78%
07:00 +5°C° 0 mm 1 m/s 742 mm Hg 78%
08:00 +6°C° 0 mm 2 m/s 742 mm Hg 73%
09:00 +8°C° 0 mm 2 m/s 741 mm Hg 69%
10:00 +10°C° 0 mm 2 m/s 741 mm Hg 64%
11:00 +11°C° 0 mm 3 m/s 741 mm Hg 60%
12:00 +12°C° 0 mm 3 m/s 741 mm Hg 56%
13:00 +14°C° 0 mm 3 m/s 741 mm Hg 53%
14:00 +14°C° 0 mm 3 m/s 740 mm Hg 51%
15:00 +16°C° 0 mm 3 m/s 740 mm Hg 49%
16:00 +17°C° 0 mm 3 m/s 740 mm Hg 48%
17:00 +14°C° 0 mm 3 m/s 739 mm Hg 54%
18:00 +13°C° 0 mm 3 m/s 739 mm Hg 60%
19:00 +12°C° 0 mm 3 m/s 738 mm Hg 66%
20:00 +12°C° 0 mm 2 m/s 738 mm Hg 67%
21:00 +10°C° 0 mm 2 m/s 738 mm Hg 67%
22:00 +10°C° 0 mm 1 m/s 738 mm Hg 68%
23:00 +10°C° 0 mm 1 m/s 738 mm Hg 67%

Domani, 16 Aprile, Venerdi

Tempo Temperatura Precipitazioni Vento Pressione Umidità
00:00 +10°C° 0 mm 1 m/s 738 mm Hg 67%
01:00 +9°C° 0 mm 1 m/s 738 mm Hg 66%
02:00 +9°C° 0 mm 1 m/s 737 mm Hg 66%
03:00 +9°C° 0 mm 1 m/s 737 mm Hg 67%
04:00 +8°C° 0 mm 1 m/s 737 mm Hg 67%
05:00 +9°C° 0 mm 1 m/s 737 mm Hg 66%
06:00 +9°C° 0 mm 1 m/s 737 mm Hg 65%
07:00 +10°C° 0 mm 1 m/s 737 mm Hg 65%
08:00 +11°C° 0 mm 1 m/s 738 mm Hg 60%
09:00 +13°C° 0 mm 2 m/s 738 mm Hg 54%
10:00 +15°C° 0 mm 2 m/s 738 mm Hg 49%
11:00 +16°C° 0 mm 2 m/s 738 mm Hg 45%
12:00 +17°C° 0 mm 2 m/s 738 mm Hg 41%
13:00 +18°C° 0 mm 3 m/s 738 mm Hg 37%
14:00 +19°C° 0 mm 3 m/s 738 mm Hg 36%
15:00 +19°C° 0 mm 3 m/s 737 mm Hg 34%
16:00 +19°C° 0 mm 3 m/s 737 mm Hg 32%
17:00 +18°C° 0 mm 3 m/s 737 mm Hg 39%
18:00 +17°C° 0 mm 2 m/s 737 mm Hg 46%
19:00 +15°C° 0 mm 2 m/s 737 mm Hg 52%
20:00 +13°C° 0 mm 3 m/s 737 mm Hg 60%
21:00 +12°C° 0 mm 3 m/s 737 mm Hg 68%
22:00 +11°C° 0 mm 4 m/s 738 mm Hg 76%
23:00 +10°C° 0 mm 4 m/s 738 mm Hg 80%

Dopodomani, 17 Aprile, Sabato

Tempo Temperatura Precipitazioni Vento Pressione Umidità
00:00 +8°C° 0 mm 4 m/s 738 mm Hg 84%
01:00 +7°C° 0 mm 4 m/s 738 mm Hg 88%
02:00 +8°C° 0 mm 3 m/s 738 mm Hg 89%
03:00 +7°C° 0 mm 3 m/s 738 mm Hg 91%
04:00 +7°C° 0 mm 2 m/s 738 mm Hg 92%
05:00 +7°C° 0 mm 2 m/s 738 mm Hg 91%
06:00 +7°C° 0 mm 2 m/s 738 mm Hg 90%
07:00 +7°C° 0 mm 2 m/s 739 mm Hg 89%
08:00 +9°C° 0 mm 2 m/s 739 mm Hg 82%
09:00 +10°C° 0 mm 3 m/s 739 mm Hg 74%
10:00 +12°C° 0 mm 3 m/s 739 mm Hg 67%
11:00 +13°C° 0 mm 3 m/s 739 mm Hg 62%
12:00 +14°C° 0 mm 3 m/s 739 mm Hg 57%
13:00 +16°C° 0 mm 3 m/s 739 mm Hg 52%
14:00 +16°C° 0 mm 3 m/s 738 mm Hg 50%
15:00 +17°C° 0 mm 3 m/s 738 mm Hg 49%
16:00 +17°C° 0 mm 2 m/s 738 mm Hg 47%
17:00 +16°C° 0 mm 3 m/s 738 mm Hg 53%
18:00 +14°C° 0 mm 3 m/s 738 mm Hg 58%
19:00 +13°C° 0 mm 3 m/s 738 mm Hg 64%
20:00 +12°C° 0 mm 3 m/s 738 mm Hg 68%
21:00 +11°C° 0 mm 3 m/s 738 mm Hg 72%
22:00 +9°C° 0 mm 3 m/s 738 mm Hg 76%
23:00 +9°C° 0 mm 3 m/s 738 mm Hg 74%

18 Aprile, Domenica

Tempo Temperatura Precipitazioni Vento Pressione Umidità
00:00 +7°C° 0 mm 4 m/s 738 mm Hg 72%
01:00 +6°C° 0 mm 4 m/s 738 mm Hg 71%
02:00 +5°C° 0 mm 3 m/s 738 mm Hg 69%
03:00 +5°C° 0 mm 3 m/s 738 mm Hg 68%
04:00 +4°C° 0 mm 3 m/s 738 mm Hg 67%
05:00 +4°C° 0 mm 3 m/s 738 mm Hg 65%
06:00 +4°C° 0 mm 3 m/s 738 mm Hg 64%
07:00 +4°C° 0 mm 4 m/s 738 mm Hg 63%
08:00 +6°C° 0 mm 4 m/s 738 mm Hg 57%
09:00 +7°C° 0 mm 5 m/s 738 mm Hg 51%
10:00 +8°C° 0 mm 6 m/s 738 mm Hg 45%
11:00 +9°C° 0 mm 6 m/s 738 mm Hg 42%
12:00 +10°C° 0 mm 5 m/s 738 mm Hg 39%
13:00 +12°C° 0 mm 5 m/s 738 mm Hg 37%
14:00 +11°C° 0 mm 6 m/s 738 mm Hg 36%
15:00 +11°C° 0 mm 6 m/s 738 mm Hg 36%
16:00 +11°C° 0 mm 6 m/s 738 mm Hg 36%
17:00 +10°C° 0 mm 6 m/s 738 mm Hg 40%
18:00 +9°C° 0 mm 5 m/s 738 mm Hg 45%
19:00 +9°C° 0 mm 5 m/s 738 mm Hg 50%
20:00 +7°C° 0 mm 6 m/s 738 mm Hg 57%
21:00 +5°C° 0 mm 6 m/s 738 mm Hg 63%
22:00 +4°C° 0 mm 7 m/s 738 mm Hg 69%
23:00 +3°C° 0 mm 6 m/s 739 mm Hg 71%

19 Aprile, Lunedi

Tempo Temperatura Precipitazioni Vento Pressione Umidità
00:00 +3°C° 0 mm 6 m/s 739 mm Hg 73%
01:00 +2°C° 0 mm 6 m/s 739 mm Hg 75%
02:00 +1°C° 0 mm 6 m/s 740 mm Hg 70%
03:00 -1°C° 0 mm 6 m/s 740 mm Hg 66%
04:00 -2°C° 0 mm 6 m/s 741 mm Hg 62%
05:00 -2°C° 0 mm 7 m/s 741 mm Hg 60%
06:00 -2°C° 0 mm 7 m/s 741 mm Hg 58%
07:00 -2°C° 0 mm 7 m/s 742 mm Hg 57%
08:00 -1°C° 0 mm 7 m/s 742 mm Hg 55%
09:00 -1°C° 0 mm 7 m/s 742 mm Hg 53%
10:00 -1°C° 0 mm 7 m/s 743 mm Hg 51%
11:00 0°C° 0 mm 7 m/s 743 mm Hg 47%
12:00 +2°C° 0 mm 7 m/s 743 mm Hg 44%
13:00 +4°C° 0 mm 7 m/s 743 mm Hg 40%
14:00 +4°C° 0 mm 7 m/s 743 mm Hg 39%
15:00 +4°C° 0 mm 7 m/s 743 mm Hg 38%
16:00 +4°C° 0 mm 7 m/s 743 mm Hg 37%
17:00 +3°C° 0 mm 6 m/s 743 mm Hg 37%
18:00 +2°C° 0 mm 6 m/s 743 mm Hg 38%
19:00 +2°C° 0 mm 6 m/s 744 mm Hg 38%
20:00 +1°C° 0 mm 6 m/s 744 mm Hg 40%
21:00 -1°C° 0 mm 6 m/s 745 mm Hg 42%
22:00 -2°C° 0 mm 6 m/s 745 mm Hg 44%
23:00 -3°C° 0 mm 6 m/s 745 mm Hg 45%

20 Aprile, Martedi

Tempo Temperatura Precipitazioni Vento Pressione Umidità
00:00 -4°C° 0 mm 5 m/s 745 mm Hg 45%
01:00 -4°C° 0 mm 5 m/s 746 mm Hg 46%
02:00 -4°C° 0 mm 5 m/s 746 mm Hg 46%
03:00 -5°C° 0 mm 5 m/s 746 mm Hg 46%
04:00 -5°C° 0 mm 5 m/s 747 mm Hg 46%
05:00 -5°C° 0 mm 5 m/s 747 mm Hg 44%
06:00 -4°C° 0 mm 6 m/s 747 mm Hg 42%
07:00 -4°C° 0 mm 6 m/s 748 mm Hg 40%
08:00 -3°C° 0 mm 6 m/s 748 mm Hg 37%
09:00 -2°C° 0 mm 6 m/s 748 mm Hg 33%
10:00 +1°C° 0 mm 6 m/s 748 mm Hg 30%
11:00 +2°C° 0 mm 6 m/s 748 mm Hg 29%
12:00 +3°C° 0 mm 6 m/s 747 mm Hg 27%
13:00 +5°C° 0 mm 5 m/s 747 mm Hg 25%
14:00 +6°C° 0 mm 5 m/s 747 mm Hg 25%
15:00 +6°C° 0 mm 5 m/s 747 mm Hg 25%
16:00 +7°C° 0 mm 4 m/s 747 mm Hg 24%
17:00 +6°C° 0 mm 4 m/s 747 mm Hg 28%
18:00 +5°C° 0 mm 3 m/s 747 mm Hg 32%
19:00 +5°C° 0 mm 3 m/s 747 mm Hg 37%
20:00 +4°C° 0 mm 3 m/s 747 mm Hg 40%
21:00 +3°C° 0 mm 3 m/s 747 mm Hg 44%
22:00 +1°C° 0 mm 3 m/s 748 mm Hg 48%
23:00 +1°C° 0 mm 3 m/s 748 mm Hg 49%
Mostrare altro

Abbiamo bisogno del tuo consenso

Meteoprog e i nostri fornitori di servizi possono memorizzare e accedere a dati personali come cookie, identificatori di dispositivi o altre tecnologie simili sul tuo dispositivo e possono elaborare tali dati per personalizzare i contenuti e gli annunci, nonché fornire funzionalità dei social media e analizzarne il traffico.

  • Archiviare e/o accedere alle informazioni sul tuo dispositivo

    Cookie, identificatori di dispositivi o altre informazioni possono essere memorizzati o resi accessibili sul tuo dispositivo per le finalità sopra indicate.

  • Annunci e contenuti personalizzati, misurazione di annunci e contenuti, approfondimenti sul pubblico e sviluppo di prodotti

    Gli annunci e i contenuti possono essere personalizzati in base a un profilo. È possibile aggiungere più dati per personalizzare meglio annunci e contenuti. È possibile misurare il rendimento degli annunci e dei contenuti. È possibile ricavare informazioni sul pubblico che ha visto gli annunci e i contenuti. Tali dati possono essere utilizzati per sviluppare o migliorare l'esperienza, i sistemi e il software dell'utente.

Cliccando su “Accetto”, acconsenti all'uso di cookie, identificatori di dispositivo, web beacon o altre tecnologie simili. Puoi modificare le impostazioni nel browser del tuo dispositivo.

Per determinati scopi, è possibile fare affidamento su interessi legali, piuttosto che sul consenso. Puoi approfondire questo argomento consultando la nostra Informativa sulla privacy e sui cookie.